Showing default

PROPCUBE 3, 40973

Orbit data source: Space-Track

PROPCUBE 3, 40973 is a payload satellite owned by USN PGS (US) in LEO that was launched on Thu, 08 Oct 2015 UTC via an ATLAS V 401 launch vehicle from the Air Force Western Test Range (AFWTR). Payload-class satellites include a variety of spacecraft equipped with specific instruments for various scientific and technological missions. These include communications satellites like Starlink; space stations such as the ISS; scientific satellites like the Hubble; Earth observation satellites from companies like Planet Labs, Umbra, and HawkEye 360; GPS; miniature CubeSats for education and research; and military/defense satellites.

Loading next visibility...
Identifier
40973, 2015-058K
Orbit
LEO
Country
Flag of USUS
Related business
Manufacturer
Tyvak NSS
Mission
Operational Defense Technology
Bus & Motor
CUBESAT 1U, Unknown motor
Mass
1 kg wet, 1 kg dry
Launch date (UTC)
2015-10-08 (10 years ago)
Launch vehicle
ATLAS V 401
Launch site
Air Force Western Test Range (AFWTR)
Object type
Payload
Rocket body
Debris
Shape & HBR
Box, 0.1 m
Radar Cross Section
0.015 m², Small (<0.1 m²)

Expand to show TLE details & history
Last TLE update: 19 hours ago

TLE from 19 hours ago
0 PROPCUBE 3
1 40973U 15058K   25302.23006313  .00004407  00000-0  37540-3 0  9999
2 40973  64.7688 253.0606 0136521 150.5196 210.3706 14.92116185 80310
Epoch: 2025-10-29T05:31Z
TLE epoch observation values (Epoch: 2025-10-29T05:31:17.454Z)
Latitude
-0.00008°
Longitude
132.43165°
Altitude
675.773 km
Speed
7.475 km/s
True Right ascension
16h 52m 14s
True Declination
0° 00' 00"
Sunlit
Object was in daylight at epoch
Visualization orbit readout
Latitude
Unknown
Longitude
Unknown
Altitude
Unknown
Speed
Unknown
Apparent Right ascension
Unknown
Apparent Declination
Unknown
Sunlit
N/A
Visualization observer readout
Local Sidereal Time
19:51:44
Azimuth
Unknown
Elevation
Unknown
Doppler factor
Unknown
Orbital elements
Apogee altitude
685.034 km
Perigee altitude
494.777 km
Semi-major axis
6,968.042 km
Eccentricity
0.01365
Inclination
64.7688°
RAAN
253.0606°
Arg. of periapsis
150.5196°
True anomaly
209.59115°
Mean anomaly
210.3706°
Eccentric anomaly
209.97974°
Mean motion
3.73144 °/min
Orbital period
96.48 mins
BSTAR
0.0003754
Loading maneuver chart data...
Computing Atmospheric mass density...
Loading historical data...
Loading historical data...
Loading historical data...
Loading historical data...
Loading historical data...
Loading historical data...
Loading historical data...

Documentation

Showing up to 5 results
|